Погода в Стексове

Россия / Нижегородская область     55°17′55″N   43°24′55″E
темп.,
°C
ветер,
м/с
пор.,
м/с
влажн.,
%
обл.,
%
осадки,
мм/ч
давл.,
гПа
погр.,
м
30 июня, чт
чт3000:00+10сз33705 0.0 101823
03:00+9зсз3477100 0.0 101843
06:00+12сз3778100 0.0 1017197
09:00+18сз575624 0.0 1015727
12:00+21ссз684522 0.0 10142280
15:00+19ссз4857100 0.0 1012470
18:00+18ссз376698 0.0 1012346
21:00+16св41055100 0.0 1012372
1 июля, пт
пт100:00+11всв3776100 0.0 1014219
03:00+8ссв411865 0.1 1016258
06:00+9ссв511730 0.0 1016761
09:00+12ссв8155899 0.0 10161723
12:00+8св41182100 0.4 10181030
15:00+10св5128320 0.6 1018755
18:00+15св6117316 0.1 10171184
21:00+12с498029 0.1 1018157
2 июля, сб
сб200:00+10с478170 0.0 1018115
03:00+9с488669 0.0 1018121
06:00+12с49765 0.0 1018208
09:00+18с46581 0.0 1018719
12:00+21с574518 0.0 10171967
15:00+22с57477 0.0 10151979
18:00+21с376185 0.0 1015366
21:00+18зсз225854 0.0 101426
3 июля, вс
вс300:00+14ююз359280 1.6 101479
03:00+13ссз339432 1.8 101339
06:00+15ссв36900 0.0 1013192
09:00+19ссв56730 0.0 1014748
12:00+21ссв566196 0.3 10141514
15:00+21ссв56656 0.5 1014968
18:00+20ссв467016 0.2 1014601
21:00+15св3387100 0.3 101522
4 июля, пн
пн400:00+13св23887 0.0 101622
03:00+12с228626 0.0 101711
06:00+15ссз238088 0.0 1017111
09:00+21ссз356127 0.0 1017690
12:00+24с344455 0.0 10172305
15:00+25ссз344238 0.0 10172301
18:00+24ссз345826 0.0 1016151
21:00+20з335784 0.0 101737